Find Starlink 5449

NORAD ID: 54780 Int'l Des: 2022-175 Owner: SPXS Country: US Constellation: starlink operational
LEOCIRCULAR

实时位置

正在加载3D地球...

关于 Starlink 5449

正在加载描述...

即将过境

Passes for default location (London). Set your location on the main map for personalized predictions.

高度历史

Loading altitude history...

两行轨道根数

1 54780U 22175Y 26126.00589905 .00000010 00000-0 18740-4 0 9999
2 54780 53.2170 131.7174 0001248 87.3257 272.7878 15.08838293188785
Epoch: May 6, 2026 • Age: 10 hours

当前状态

高度 548.5 km
速度 7.59 km/s
星下点 -27.51°S, 51.2°W
发射日期 Dec 17, 2022
运行时间 3.3 years
类型 internet

技术详情

分类 Payload
质量 305.00 kg
干质量 290.00 kg
总质量 305.00 kg
长度 0.20 m
直径 2.80 m
跨度 9.00 m
形状 Box + pan
制造商 SPXS
平台类型 Starlink
阶段状态 In Orbit
所有者/国家 SPXS/US

Most Searched